EC1ABR Weather Reports


Display with metric or nautical units.
time (UTC)temp
F
wind
direction
speed
MPH
gust
MPH
rain 1hr
in
rain 24hr
in
rain mn
in
humidity
%
barometer
mb
20260504185403 56 0 0.0 0.0 0.00 0.00 0.00 81 1014.8
20260504184503 56 0 0.0 0.0 0.00 0.00 0.00 82 1014.5
20260504183603 56 0 0.0 0.0 0.00 0.00 0.00 82 1014.3
20260504182703 56 0 0.0 0.0 0.00 0.00 0.00 82 1014.4
20260504181804 56 0 0.0 0.0 0.00 0.00 0.00 82 1014.3
20260504180904 56 0 0.0 0.0 0.00 0.00 0.00 82 1014.4
20260504180004 56 0 0.0 0.0 0.00 0.00 0.00 82 1014.4
20260504175403 55 0 0.0 0.0 0.00 0.00 0.00 82 1014.3
20260504174503 55 0 0.0 0.0 0.00 0.00 0.00 83 1014.2
20260504173603 55 0 0.0 0.0 0.00 0.00 0.00 84 1014.3
20260504172704 55 0 0.0 0.0 0.00 0.00 0.00 84 1014.2
20260504172013 56 0 0.0 0.0 0.00 0.00 0.00 83 1014.2
20260504170903 56 0 0.0 0.0 0.00 0.00 0.00 81 1014.1
20260504160213 55 0 0.0 0.0 0.00 0.00 0.00 78 1014.1
20260504150903 56 0 0.0 0.0 0.00 0.00 0.00 83 1013.8
20260504140903 55 0 0.0 0.0 0.00 0.00 0.00 82 1013.5
20260504140214 55 0 0.0 0.0 0.00 0.00 0.00 82 1013.5
20260504110216 55 0 0.0 0.0 0.00 0.00 0.00 81 1014.2
20260504081803 54 0 0.0 0.0 0.00 0.00 0.00 98 1014.0
20260504081116 54 0 0.0 0.0 0.00 0.00 0.00 99 1014.0
20260504080213 53 0 0.0 0.0 0.00 0.00 0.00 99 1014.0
20260504050004 47 0 0.0 0.0 0.00 0.00 0.00 98 1013.3
20260504045404 47 0 0.0 0.0 0.00 0.00 0.00 98 1013.1
20260504044504 47 0 0.0 0.0 0.00 0.00 0.00 98 1013.4
20260504043603 47 0 0.0 0.0 0.00 0.00 0.00 98 1013.5
20260504042703 47 0 0.0 0.0 0.00 0.00 0.00 98 1013.4
20260504041804 47 0 0.0 0.0 0.00 0.00 0.00 98 1013.5
20260504040903 47 0 0.0 0.0 0.00 0.00 0.00 97 1013.4
20260504040004 47 0 0.0 0.0 0.00 0.00 0.00 97 1013.6
20260504035403 47 0 0.0 0.0 0.00 0.00 0.00 97 1013.5
20260504034503 47 0 0.0 0.0 0.00 0.00 0.00 97 1013.5
20260504033603 47 0 0.0 0.0 0.00 0.00 0.00 97 1013.6
20260504032703 47 0 0.0 0.0 0.00 0.00 0.00 97 1013.5
20260504031804 47 0 0.0 0.0 0.00 0.00 0.00 97 1013.4
20260504031114 47 0 0.0 0.0 0.00 0.00 0.00 97 1013.6
20260504030004 47 0 0.0 0.0 0.00 0.00 0.00 97 1013.7
20260504025403 47 0 0.0 0.0 0.00 0.00 0.00 97 1013.8
20260504024503 47 0 0.0 0.0 0.00 0.00 0.00 97 1013.7
20260504023813 47 0 0.0 0.0 0.00 0.00 0.00 96 1013.8
20260504022704 47 0 0.0 0.0 0.00 0.00 0.00 96 1013.7
20260504022018 47 0 0.0 0.0 0.00 0.00 0.00 96 1013.8
20260504021115 47 0 0.0 0.0 0.00 0.00 0.00 96 1014.0
20260504020004 47 0 0.0 0.0 0.00 0.00 0.00 96 1014.0
20260504015403 47 0 0.0 0.0 0.00 0.00 0.00 96 1013.9
20260504014503 48 0 0.0 0.0 0.00 0.00 0.00 96 1014.0
20260504013604 48 0 0.0 0.0 0.00 0.00 0.00 95 1014.2
20260504012916 48 0 0.0 0.0 0.00 0.00 0.00 95 1014.2
20260504011803 48 0 0.0 0.0 0.00 0.00 0.00 95 1014.1
20260504010903 48 0 0.0 0.0 0.00 0.00 0.00 95 1014.2
20260504010213 48 0 0.0 0.0 0.00 0.00 0.00 95 1014.3
20260504005403 49 0 0.0 0.0 0.00 0.00 0.00 95 1014.3
20260504004503 49 0 0.0 0.0 0.00 0.00 0.00 95 1014.3
20260504003604 49 0 0.0 0.0 0.00 0.00 0.00 95 1014.5
20260504002703 50 0 0.0 0.0 0.00 0.00 0.00 95 1014.4
20260504002014 50 0 0.0 0.0 0.00 0.00 0.00 95 1014.4
20260504001116 50 0 0.0 0.0 0.00 0.00 0.00 95 1014.7
20260504000003 51 0 0.0 0.0 0.00 0.00 0.00 95 1014.7
20260503235403 51 0 0.0 0.0 0.00 0.00 0.00 95 1015.0
20260503234504 51 0 0.0 0.0 0.00 0.00 0.00 95 1014.9
20260503233814 51 0 0.0 0.0 0.00 0.00 0.00 95 1014.8
20260503232703 52 0 0.0 0.0 0.00 0.00 0.00 95 1014.9
20260503231803 52 0 0.0 0.0 0.00 0.00 0.00 95 1015.0
20260503230903 52 0 0.0 0.0 0.00 0.00 0.00 95 1015.0
20260503230008 52 0 0.0 0.0 0.00 0.00 0.00 95 1015.4
20260503225404 53 0 0.0 0.0 0.00 0.00 0.00 94 1015.4
20260503224503 53 0 0.0 0.0 0.00 0.00 0.00 94 1015.6
20260503223603 53 0 0.0 0.0 0.00 0.00 0.00 94 1015.8
20260503222703 53 0 0.0 0.0 0.00 0.00 0.00 94 1015.8
20260503221803 53 0 0.0 0.0 0.00 0.00 0.00 94 1015.8
20260503220903 53 0 0.0 0.0 0.00 0.00 0.00 94 1015.4
20260503220004 53 0 0.0 0.0 0.00 0.00 0.00 94 1015.6
20260503215403 53 0 0.0 0.0 0.00 0.00 0.00 94 1015.3
20260503214503 54 0 0.0 0.0 0.00 0.00 0.00 94 1015.0
20260503213603 54 0 0.0 0.0 0.00 0.00 0.00 95 1014.7
20260503212703 54 0 0.0 0.0 0.00 0.00 0.00 95 1014.6
20260503211803 54 0 0.0 0.0 0.00 0.00 0.00 95 1014.7
20260503210903 54 0 0.0 0.0 0.00 0.00 0.00 95 1014.5
20260503210004 54 0 0.0 0.0 0.00 0.00 0.00 95 1014.6
20260503205403 54 0 0.0 0.0 0.00 0.00 0.00 95 1014.6
20260503204503 54 0 0.0 0.0 0.00 0.00 0.00 92 1014.4
20260503203603 54 0 0.0 0.0 0.00 0.00 0.00 92 1014.3
20260503202703 55 0 0.0 0.0 0.00 0.00 0.00 92 1014.3
20260503201803 55 0 0.0 0.0 0.00 0.00 0.00 92 1014.1
20260503200904 55 0 0.0 0.0 0.00 0.00 0.00 91 1014.2
20260503200004 55 0 0.0 0.0 0.00 0.00 0.00 91 1014.1
20260503195403 55 0 0.0 0.0 0.00 0.00 0.00 91 1014.2
20260503194503 55 0 0.0 0.0 0.00 0.00 0.00 90 1014.2
20260503193603 55 0 0.0 0.0 0.00 0.00 0.00 90 1014.2
20260503192703 55 0 0.0 0.0 0.00 0.00 0.00 90 1014.3
20260503191804 55 0 0.0 0.0 0.00 0.00 0.00 89 1014.3
20260503190903 55 0 0.0 0.0 0.00 0.00 0.00 88 1014.3
20260503190004 55 0 0.0 0.0 0.00 0.00 0.00 88 1014.2